Location: Unspecified
(0.0000°N, 0.0000°E)
Time: 11:34:59
(UTC+00:00)

S-56A Canister/Altair - Pass Details

Date: 02 June 2024
Orbit: 637 x 2489 km, 38.9° (Epoch: 17 June)

Event Time Altitude Azimuth Distance (km) Brightness Sun altitude
Rises 02:50:56 0° 277° (W) 5,880 - -42.4°
Reaches altitude 10° 02:57:00 10° 296° (WNW) 5,059 - -41.1°
Exits shadow 03:00:34 14° 310° (NW) 4,748 11.3 -40.3°
Maximum altitude 03:05:13 17° 330° (NNW) 4,588 11.4 -39.3°
Drops below altitude 10° 03:13:26 10° 5° (N) 5,019 12.0 -37.5°
Sets 03:19:33 0° 24° (NNE) 5,807 12.6 -36.2°
